Dryden, TX

3:54 AM CDT on March 26, 2017 (GMT -0500)
Dryden

Weather History for K6R6 - June, 2013

Change the Weather History Date:

Sunday, June 23, 2013

  Actual Average (KFST) Record (KFST)
Temperature  
Mean Temperature 88 °F -  
Max Temperature 100 °F 92 °F 102 °F (1998)
Min Temperature 78 °F 68 °F 64 °F (2006)
Cooling Degree Days 24    
Growing Degree Days 38 (Base 50)    
Moisture  
Dew Point 60 °F    
Average Humidity 39    
Maximum Humidity 56    
Minimum Humidity 28    
Precipitation  
Precipitation 0.00 in - - ()
Sea Level Pressure  
Sea Level Pressure 29.77 in    
Wind  
Wind Speed 14 mph (ESE)    
Max Wind Speed 23 mph    
Max Gust Speed 31 mph    
Averages and records for this station are not official NWS values.
T = Trace of Precipitation, MM = Missing Value Source: NWS Daily Summary

Daily Weather History Graph

Daily Weather History Graph

Search for Another Location

Airport or City:

Trip Planner

Search our weather history database for the weather conditions in past years. The results will help you decide how hot, cold, wet, or windy it might be!

Date:

Astronomy

Jun. 23, 2013 Rise Set
Actual Time 6:48 AM CDT 8:53 PM CDT
Civil Twilight 6:21 AM CDT 9:21 PM CDT
Nautical Twilight 5:47 AM CDT 9:54 PM CDT
Astronomical Twilight 5:12 AM CDT 10:30 PM CDT
Moon 9:13 PM CDT (6/23) 7:03 AM CDT (6/23)
Length of Visible Light 14h 59m
Length of Day
14h 04m
Full, 100% of the Moon is Illuminated
Jun 23
Full
Jun 29
Last Quarter
Jul 8
New
Jul 15
First Quarter
Jul 22
Full

Hourly Weather History & Observations

Time (CDT) Temp. Heat Index Dew Point Humidity Pressure Visibility Wind Dir Wind Speed Gust Speed Precip Events Conditions
12:53 AM 86.0 °F - 52.0 °F 31% 29.79 in - ESE 13.8 mph - N/A   Unknown
1:53 AM 86.0 °F - 52.0 °F 31% 29.78 in - SE 11.5 mph 23.0 mph N/A   Unknown
2:53 AM 84.9 °F 83.2 °F 53.1 °F 33% 29.76 in - SE 12.7 mph 21.9 mph N/A   Unknown
3:53 AM 84.0 °F 83.3 °F 57.0 °F 40% 29.76 in - ESE 15.0 mph 21.9 mph N/A   Unknown
4:53 AM 82.0 °F 82.1 °F 59.0 °F 45% 29.78 in - ESE 9.2 mph - N/A   Unknown
5:53 AM 80.1 °F 80.7 °F 59.0 °F 48% 29.78 in - ESE 8.1 mph - N/A   Unknown
6:53 AM 78.1 °F - 60.1 °F 54% 29.80 in - East 8.1 mph - N/A   Unknown
7:53 AM 78.1 °F - 61.0 °F 56% 29.81 in - ESE 10.4 mph - N/A   Unknown
8:53 AM 80.1 °F 81.2 °F 62.1 °F 54% 29.83 in - ESE 9.2 mph - N/A   Unknown
9:53 AM 82.9 °F 84.0 °F 63.0 °F 51% 29.82 in - East 12.7 mph - N/A   Unknown
10:53 AM 88.0 °F 89.3 °F 64.0 °F 45% 29.81 in - East 12.7 mph 18.4 mph N/A   Unknown
11:53 AM 90.0 °F 90.6 °F 63.0 °F 40% 29.80 in - ESE 10.4 mph - N/A   Unknown
12:53 PM 95.0 °F 95.6 °F 62.1 °F 33% 29.78 in - SE 9.2 mph 19.6 mph N/A   Unknown
1:53 PM 97.0 °F 97.4 °F 61.0 °F 30% 29.77 in - East 17.3 mph 27.6 mph N/A   Unknown
2:53 PM 99.0 °F 99.5 °F 61.0 °F 28% 29.75 in - East 15.0 mph 27.6 mph N/A   Unknown
3:53 PM 98.1 °F 98.6 °F 61.0 °F 29% 29.74 in - ESE 17.3 mph 26.5 mph N/A   Unknown
4:53 PM 99.0 °F 99.5 °F 60.1 °F 28% 29.73 in - ESE 21.9 mph 27.6 mph N/A   Unknown
5:53 PM 97.0 °F 97.4 °F 61.0 °F 30% 29.71 in - ESE 20.7 mph 28.8 mph N/A   Unknown
6:53 PM 95.0 °F 95.6 °F 62.1 °F 33% 29.72 in - ESE 23.0 mph 31.1 mph N/A   Unknown
7:53 PM 93.0 °F 92.7 °F 60.1 °F 33% 29.72 in - ESE 21.9 mph 29.9 mph N/A   Unknown
8:53 PM 90.0 °F 90.0 °F 61.0 °F 38% 29.75 in - ESE 23.0 mph 29.9 mph N/A   Unknown
9:53 PM 88.0 °F 87.9 °F 61.0 °F 40% 29.77 in - ESE 19.6 mph 26.5 mph N/A   Unknown
10:53 PM 87.1 °F 87.0 °F 61.0 °F 41% 29.79 in - ESE 13.8 mph 24.2 mph N/A   Unknown
11:53 PM 86.0 °F 85.7 °F 60.1 °F 41% 29.80 in - ESE 10.4 mph - N/A   Unknown